Location: New Frontier Mobile Home Park
(32.8448°N, 116.9675°W)
Time: 23:06:40
(UTC+00:00)

Cosmos 1743 - Pass Details

Date: 14 July 2020
Orbit: 511 x 526 km, 82.6° (Epoch: 05 August)

Event Time Altitude Azimuth Distance (km) Brightness Sun altitude
Exits shadow 10:58:08 48° 281° (W) 673 3.0 -20.0°
Drops below altitude 10° 11:01:48 10° 354° (N) 1,744 5.9 -19.5°
Sets 11:04:00 0° 0° (N) 2,637 7.0 -19.2°
